Regional Weather Roundup
Issued by NWS

Home | Current Version | Previous Version | Text Only | Print | Product List | Glossary Off
Versions: 1 2 3 4 5 6 7 8 9 10 11 12 13 14 15 16 17 18 19 20 21 22 23 24 25 26 27 28 29 30 31 32 33 34 35 36 37 38 39 40 41 42 43 44 45 46 47 48 49 50

000
ASUS43 KDTX 160810
RWRMI
MICHIGAN HOURLY REGIONAL WEATHER ROUNDUP
NATIONAL WEATHER SERVICE DETROIT/PONTIAC MI
400 AM EDT WED AUG 16 2017

NOTE: "FAIR" INDICATES FEW OR NO CLOUDS BELOW 12,000 FEET WITH NO
SIGNIFICANT WEATHER AND/OR OBSTRUCTION TO VISIBILITY.

MIZ047>049-052>055-059>063-066>070-074>076-081>083-160900-
SOUTHEAST LOWER MICHIGAN

CITY           SKY/WX    TMP DP  RH WIND       PRES   REMARKS
ADRIAN         CLEAR     64  62  93 NE3       30.03S
ALMA           CLEAR     56  55  94 CALM      30.03S
ANN ARBOR      CLEAR     60  60 100 CALM      30.03S
BAD AXE        CLOUDY    58  56  95 CALM      30.06R
CARO           CLEAR     55  54  95 CALM      30.04R
DETROIT CITY   PTCLDY    66  57  72 CALM      30.04R
DETROIT        MOCLDY    65  60  84 N5        30.04R
FLINT          CLOUDY    62  58  86 CALM      30.04R
GROSSE ILE     CLEAR     65  58  76 NE5       30.02R
HILLSDALE      MOCLDY    64  63  94 E3        30.03S FOG
HOWELL         PTCLDY    63  60  89 E3        30.04S

CITY           SKY/WX    TMP DP  RH WIND       PRES   REMARKS
JACKSON          N/A    N/A N/A N/A MISG      30.03S
LAMBERTVILLE   CLEAR     64  63  96 CALM      30.01S
LANSING        MOCLDY    63  59  87 E3        30.03S
LAPEER         FAIR      56  55  96 NE7       30.05S
MASON          MOCLDY    64  61  88 CALM      30.03S
MONROE         CLEAR     64  61  88 NE3       30.01F
MT. CLEMENS    MOCLDY    61  61 100 N3        30.02R
PONTIAC        MOCLDY    63  59  87 CALM      30.04R
PORT HOPE        N/A     60  58  92 CALM      30.03R
PORT HURON     MOCLDY    55  54  94 CALM      30.05R FOG
TRI CITIES     PTCLDY    61  60  97 CALM      30.04R
MIDLAND        FAIR      58  58 100 CALM      30.04R FOG
TROY           MOCLDY    65  59  80 CALM      30.06R
SAGINAW HB     CLEAR     55  55 100 CALM      30.03S
$$
MIZ043>046-050>051-056>058-064>065-071>073-077>080-160900-
SOUTHWEST LOWER MICHIGAN

CITY           SKY/WX    TMP DP  RH WIND       PRES   REMARKS
BATTLE CREEK   CLEAR     67  63  87 SE6       30.02S
BENTON HARBOR  CLEAR     60  57  89 CALM      29.99S
BIG RAPIDS     CLOUDY    56  54  92 CALM      30.04R
COLDWATER      CLEAR     62  62 100 SE3       30.01S
FREMONT        FAIR      62  59  91 E7        30.01F
HOLLAND        CLOUDY    61  58  90 E5        30.00F
GRAND RAPIDS   PTCLDY    62  61  96 NE3       30.01S
IONIA          MOCLDY    60  59  94 NE3       30.02S
KALAMAZOO      PTCLDY    64  60  87 CALM      30.01S FOG
LUDINGTON      CLOUDY    55  54  97 CALM      30.02S
MARSHALL       PTCLDY    63  63  99 CALM      30.01F
MOUNT PLEASANT PTCLDY    60  58  95 CALM      30.03R FOG
MUSKEGON       PTCLDY    63  58  83 E5        30.01S
SOUTH HAVEN    PTCLDY    60  59  96 CALM      29.99S
$$
MIZ016>042-160900-
NORTHERN LOWER MICHIGAN

CITY           SKY/WX    TMP DP  RH WIND       PRES   REMARKS
ALPENA         CLOUDY    57  56  96 CALM      30.06R
BEAVER ISLAND  PTCLDY    59  58  96 E5        30.06R
BELLAIRE       PTCLDY    53  51  95 CALM      30.05S
CADILLAC       CLOUDY    58  55  89 CALM      30.05S
CHARLEVOIX     CLEAR     61  60  97 SE3       30.08R
FRANKFORT      CLOUDY    59  59 100 CALM      30.04R
GAYLORD        CLOUDY    55  51  86 CALM      30.07R
GRAYLING       PTCLDY    53  50  90 CALM      30.07S
HARBOR SPRINGS PTCLDY    58  57  95 E6        30.06S
HOUGHTON LAKE  MOCLDY    57  55  93 E5        30.06S
OSCODA         MOCLDY    59  57  93 CALM      30.04S
PELLSTON       CLOUDY    50  50 100 CALM      30.07R FOG
ROGERS CITY    CLEAR     62  58  88 E5        30.08R
TRAVERSE CITY  MOCLDY    59  56  89 CALM      30.03R
$$
MIZ007>008-015-160900-
EASTERN UPPER MICHIGAN

CITY           SKY/WX    TMP DP  RH WIND       PRES   REMARKS
KINROSS        CLEAR     55  53  93 E7        30.08R
MACKINAC ISLAN CLEAR     61  61 100 E10       30.06R
NEWBERRY       FOG       50  49  97 CALM      30.07R VSB 3/4
S. S. MARIE    CLEAR     56  53  90 NE3       30.08R
MUNISING         N/A     49  49 100 S7        30.06S
$$
MIZ004>006-011>014-085-160900-
CENTRAL UPPER MICHIGAN

CITY           SKY/WX    TMP DP  RH WIND       PRES   REMARKS
MANISTIQUE     HAZE      54  48  82 N3        30.06S VSB 1/2
ESCANABA       CLOUDY    55  54  96 W3        30.07S
MENOMINEE      CLOUDY    58  56  93 N6        30.06R
SAWYER-GWINN   FOG       52  51  98 CALM      30.07F VSB 1/4
$$
MIZ001>003-009>011-084-160900-
WESTERN UPPER MICHIGAN

CITY           SKY/WX    TMP DP  RH WIND       PRES   REMARKS
IRON MOUNTAIN  CLOUDY    52  49  89 CALM      30.06S
HOUGHTON       CLOUDY    54  52  93 E7        30.06R
COPPER HARBOR    N/A     55  53  93 VRB3      30.05S
IRONWOOD       CLOUDY    50  49  96 NE3       30.05S
$$

ABBREVIATIONS USED IN REMARKS
   TC - TEMPERATURE IN CELSIUS
  WCI - WIND CHILL INDEX
   HX - HEAT INDEX
  VSB - VISIBILITY





USA.gov is the U.S. government's official web portal to all federal, state and local government web resources and services.